星链-2477 (STARLINK-2477 )

导读 | 豆包AI

STARLINK-2477是美国SpaceX公司星链星座的一员,于2021年4月29日发射入轨,属于星链V1.5版本卫星。它运行在近地轨道,搭载激光星间链路,可减少对地面站依赖,提升数据传输能力,服务全球高速互联网接入。该卫星采用霍尔推进器,具备自主避撞能力,寿命末期会主动离轨坠入大气层烧毁,为星链全球通信网络构建提供支撑。

基本信息
目录编号:
48322
目录名称:
STARLINK-2477
国际标识:
2021-036AY
轨道中心:
EARTH
卫星名称:
星链-2477
卫星全名:
星链-2477 (STARLINK-2477 )
卫星状态:
已陨落 最后检测时间 2025-01-08
发射日期:
2021-04-29 UTC
国别 :
美国 (US)
星等 :
--
轨道信息
数据来源 国际轨道数据
星历时间: 2025-01-08T22:39:11+0800
轨道信息已过期476天
半长轴: 6554.208km
偏心率: 0.0003754
轨道倾角: 53.041°
近地点辐角 277.800°
升交点赤经 191.422°
平近点角 257.956°
近地点: 173.612km
远地点: 178.534km
周期: 88.012分钟
每日圈数: 16.361477
详细信息
固有亮度:
5
最大亮度:
2.5
卫星平台:
Starlink V1.0
覆盖范围:
全球
运营商:
太空探索技术公司
运营商所在国:
美国
制造商(研发单位):
太空探索技术公司
制造商所在国:
美国
使用方式:
暂无
卫星简介
星链(Starlink)计划是由太空探索技术公司(SpaceX)提出的一个巨型低轨卫星互联网星座项目,计划在2019年至2024年间在太空搭建由约1.2万颗卫星组成的“星链”网络,其中1584颗将部署在地球上空550千米处的近地轨道,并从2020年开始工作。该卫星仍在工作。